Content
SEND FEEDBACK

Daily
Averages
Monthly
Summary
United States of America

ATKINSON, GEORGIA


Home > North America > United States > Georgia
Elevation: 1 meter     Latitude: 31 13N     Longitude: 081 52W

WEATHER
 
SELECT A DAY
Number of Records: 98,265;   Date Range: 5/13/10 - 8/29/14
 
SHARE

PRINT THIS DATA

[ ← Previous Day ]
WEATHER ALMANAC - 31 JANUARY, 2013
[ Next Day → ]
[ °F ]   °C
Weather ElementAverageHighLow
Temperature8.7 °C13 °C (2:15 pm)1 °C (11:55 pm)
Dewpoint1.8 °C11 °C (12:35 am)-1 °C (2:55 pm)
Humidity65.1 %100 % (9:55 pm)38 % (2:55 pm)
Barometer1019 hPa1024 hPa (10:15 pm)1011.2 hPa (12:35 am)
Wind Speed16.4 km/h37 km/h (5:15 am)
Wind Gust48.1 km/h (2:55 am)
Weather ElementAverage
Visibility16.1 km
Wind DirectionW (271.1 °)

Weather ElementTotal
Precipitation---
Heating Degree Days11.3 (Base 18.3)
Averaged from 70 records on 31 January, 2013
WEATHER CONDITIONS BREAKOUT
WIND DIRECTION BREAKOUT
WEATHER BY HOUR - 31 JANUARY, 2013
[ °F ]   °C
Local TimeTemperatureDewpointHumidityBarometerVisibilityWind DirectionWind SpeedGust SpeedPrecipitationEventsConditions
12:35 AM12 °C11 °C94 %1011.2 hPa16.1 kmWest (260°)7.4 km/hOvercast
12:55 AM12 °C11 °C94 %1011.5 hPa16.1 kmWest (260°)9.3 km/hOvercast
1:15 AM12 °C11 °C94 %1011.5 hPa16.1 kmWest (260°)7.4 km/hOvercast
1:35 AM12 °C11 °C94 %1011.9 hPa16.1 kmWest (260°)13 km/hOvercast
1:55 AM12 °C10 °C88 %1011.9 hPa16.1 kmWNW (290°)20.4 km/h31.5 km/hOvercast
2:15 AM12 °C9 °C82 %1012.2 hPa16.1 kmWNW (290°)18.5 km/h31.5 km/hOvercast
2:35 AM12 °C8 °C77 %1012.5 hPa16.1 kmWNW (290°)22.2 km/h35.2 km/hOvercast
2:55 AM12 °C8 °C77 %1012.9 hPa16.1 kmWNW (290°)20.4 km/h48.1 km/hMostly Cloudy
3:15 AM12 °C7 °C72 %1013.2 hPa16.1 kmWNW (300°)29.6 km/h44.4 km/hScattered Clouds
3:35 AM11 °C6 °C71 %1013.9 hPa16.1 kmWNW (300°)18.5 km/h37 km/hScattered Clouds
3:55 AM10 °C5 °C71 %1014.2 hPa16.1 kmNW (310°)29.6 km/h38.9 km/hScattered Clouds
4:15 AM10 °C4 °C66 %1014.6 hPa16.1 kmWNW (300°)27.8 km/h42.6 km/hScattered Clouds
4:35 AM10 °C3 °C62 %1014.9 hPa16.1 kmWNW (300°)25.9 km/h38.9 km/hClear
4:55 AM9 °C3 °C66 %1015.2 hPa16.1 kmWNW (300°)22.2 km/h33.3 km/hClear
5:15 AM8 °C2 °C66 %1015.6 hPa16.1 kmNW (310°)37 km/h48.1 km/hClear
5:35 AM8 °C1 °C62 %1015.9 hPa16.1 kmNW (310°)20.4 km/h33.3 km/hClear
5:55 AM7 °C1 °C66 %1016.6 hPa16.1 kmNW (310°)22.2 km/h37 km/hClear
6:15 AM7 °C1 °C66 %1016.9 hPa16.1 kmNW (310°)18.5 km/h35.2 km/hClear
6:35 AM7 °C0 °C61 %1017.3 hPa16.1 kmNW (310°)16.7 km/hClear
6:55 AM7 °C0 °C61 %1017.6 hPa16.1 kmWNW (300°)13 km/h27.8 km/hClear
7:15 AM7 °C0 °C61 %1017.6 hPa16.1 kmWNW (300°)20.4 km/h33.3 km/hClear
7:35 AM7 °C0 °C61 %1018.3 hPa16.1 kmNW (310°)20.4 km/h31.5 km/hClear
7:55 AM7 °C1 °C66 %1018.6 hPa16.1 kmWNW (290°)11.1 km/hClear
8:15 AM7 °C1 °C66 %1018.6 hPa16.1 kmWNW (290°)11.1 km/hClear
8:55 AM7 °C1 °C66 %1019.6 hPa16.1 kmWNW (300°)24.1 km/h38.9 km/hClear
9:15 AM8 °C0 °C57 %1019.6 hPa16.1 kmNW (310°)29.6 km/h35.2 km/hClear
9:35 AM8 °C0 °C57 %1020 hPa16.1 kmNW (320°)25.9 km/h31.5 km/hClear
9:55 AM8 °C0 °C57 %1020.3 hPa16.1 kmWNW (300°)22.2 km/hClear
10:15 AM8 °C0 °C57 %1020.3 hPa16.1 kmNW (310°)22.2 km/h33.3 km/hClear
10:35 AM9 °C0 °C54 %1020.3 hPa16.1 kmWNW (290°)20.4 km/h31.5 km/hClear
10:55 AM10 °C0 °C50 %1020.3 hPa16.1 kmWNW (300°)18.5 km/h29.6 km/hClear
11:15 AM10 °C0 °C50 %1020.7 hPa16.1 kmWest (280°)16.7 km/h27.8 km/hClear
11:35 AM10 °C0 °C50 %1020.3 hPa16.1 kmNW (310°)24.1 km/h33.3 km/hClear
11:55 AM11 °C0 °C47 %1020.3 hPa16.1 kmWest (280°)16.7 km/h29.6 km/hClear
12:15 PM11 °C0 °C47 %1020.7 hPa16.1 kmWest (280°)18.5 km/h33.3 km/hClear
12:35 PM11 °C0 °C47 %1020.3 hPa16.1 kmWNW (290°)18.5 km/h35.2 km/hClear
12:55 PM12 °C0 °C44 %1020 hPa16.1 kmWNW (300°)24.1 km/h35.2 km/hClear
1:15 PM12 °C0 °C44 %1020 hPa16.1 kmWNW (290°)22.2 km/h37 km/hClear
1:35 PM12 °C0 °C44 %1020 hPa16.1 kmWNW (300°)24.1 km/h38.9 km/hClear
1:55 PM12 °C0 °C44 %1019.6 hPa11.3 kmWNW (300°)24.1 km/h33.3 km/hClear
2:15 PM13 °C0 °C41 %1019.6 hPa16.1 kmNW (310°)25.9 km/h38.9 km/hClear
2:35 PM13 °C0 °C41 %1019.6 hPa16.1 kmWNW (300°)20.4 km/h37 km/hClear
2:55 PM13 °C-1 °C38 %1019.6 hPa16.1 kmWNW (300°)31.5 km/h40.7 km/hClear
3:15 PM13 °C-1 °C38 %1020 hPa16.1 kmWNW (300°)25.9 km/h42.6 km/hClear
3:35 PM13 °C0 °C41 %1020 hPa16.1 kmNW (310°)24.1 km/h33.3 km/hClear
3:55 PM13 °C0 °C41 %1020 hPa16.1 kmWNW (300°)22.2 km/h33.3 km/hClear
4:15 PM13 °C0 °C41 %1020.3 hPa16.1 kmWNW (290°)18.5 km/h29.6 km/hClear
4:35 PM13 °C0 °C41 %1020.3 hPa16.1 kmWNW (290°)16.7 km/h31.5 km/hClear
4:55 PM13 °C0 °C41 %1020.3 hPa16.1 kmWNW (300°)18.5 km/hClear
5:15 PM12 °C0 °C44 %1020.7 hPa16.1 kmWNW (300°)20.4 km/hClear
5:35 PM12 °C-1 °C41 %1020.7 hPa16.1 kmNW (310°)18.5 km/hClear
5:55 PM11 °C-1 °C44 %1021 hPa16.1 kmWNW (300°)13 km/hClear
6:15 PM10 °C0 °C50 %1021.3 hPa16.1 kmNW (310°)11.1 km/hClear
6:35 PM9 °C0 °C54 %1021.3 hPa16.1 kmWNW (290°)5.6 km/hClear
6:55 PM6 °C1 °C70 %1021.7 hPa16.1 kmWest (270°)5.6 km/hClear
7:15 PM5 °C1 °C76 %1022 hPa16.1 kmWest (260°)5.6 km/hClear
7:35 PM5 °C1 °C76 %1022.4 hPa16.1 kmCalmClear
7:55 PM4 °C1 °C81 %1022.4 hPa16.1 kmWest (260°)5.6 km/hClear
8:15 PM3 °C1 °C87 %1022.7 hPa16.1 kmCalmClear
8:35 PM3 °C1 °C87 %1023 hPa16.1 kmWest (270°)5.6 km/hClear
8:55 PM2 °C1 °C93 %1023 hPa16.1 kmWest (270°)5.6 km/hClear
9:15 PM3 °C1 °C87 %1023 hPa16.1 kmWSW (250°)5.6 km/hClear
9:35 PM2 °C1 °C93 %1023.4 hPa16.1 kmCalmClear
9:55 PM2 °C2 °C100 %1023.7 hPa16.1 kmWest (270°)7.4 km/hClear
10:15 PM2 °C1 °C93 %1024 hPa16.1 kmCalmClear
10:35 PM2 °C2 °C100 %1024 hPa16.1 kmWest (280°)5.6 km/hClear
10:55 PM2 °C2 °C100 %1024 hPa16.1 kmWest (280°)5.6 km/hClear
11:15 PM5 °C1 °C76 %1024 hPa16.1 kmCalmClear
11:35 PM4 °C1 °C81 %1024 hPa16.1 kmWest (280°)5.6 km/hClear
11:55 PM1 °C1 °C100 %1024 hPa16.1 kmWest (270°)5.6 km/hClear
Hourly data recorded from KJES, located 0 kilometers away from Atkinson, Georgia







STORIES FROM OUR PARTNERS